Wind_Speed
24 18 15 18 16 19 26 30 26 29 25 21 18 16 20 25 26 23 20 19 15 13 12 10 8 7 8 12 17 20 22 23 26 27 23 25 28 31 35 38 42 45 46 46
20 22 21 21 20 17 15 15 18 21 25 22 22 18 19 23 24 23 19 16 14 12 8 7 7 6 8 12 15 18 18 18 18 20 24 26 30 34 37 41 43 43 44 44
22 22 22 22 26 23 21 20 18 19 15 15 18 22 21 19 21 20 17 16 12 8 8 7 7 8 9 10 11 13 15 17 19 22 25 29 32 35 38 39 41 42 43 42
12 18 4 22 27 29 28 24 22 20 21 21 18 20 20 19 18 16 15 11 8 8 9 8 7 7 9 10 12 13 15 18 21 24 28 30 34 36 37 38 40 41 41 39
11 20 10 18 21 17 22 26 20 19 19 25 22 23 23 21 18 16 13 8 8 9 8 7 7 8 10 11 12 14 16 20 23 26 29 31 33 34 35 37 37 38 37 36
19 7 8 20 20 13 18 24 20 24 20 18 21 29 24 19 15 14 11 11 9 8 7 7 8 10 10 12 14 15 18 22 24 27 30 32 33 33 35 36 35 34 35 34
25 15 11 17 12 10 22 24 10 18 18 19 19 18 17 15 16 14 13 11 10 8 8 8 8 9 11 13 15 17 21 24 26 29 31 32 32 33 34 33 32 32 31 30
27 25 14 17 21 22 18 20 15 14 10 13 16 18 20 18 15 14 11 11 10 9 7 7 8 11 13 14 17 20 23 25 29 31 31 32 33 33 32 31 30 29 28 27
24 27 7 17 17 18 22 21 17 11 11 14 15 16 16 14 13 12 12 10 9 8 8 9 10 12 14 15 18 21 24 27 29 30 31 31 33 31 29 28 28 27 25 24
25 30 26 30 24 18 21 18 14 9 10 13 13 15 13 14 13 12 11 9 9 9 9 10 11 13 14 17 20 22 25 28 28 29 30 31 32 31 29 28 26 25 26 24
35 31 21 16 24 28 24 21 19 15 13 14 15 14 14 13 12 11 10 10 9 10 10 11 12 13 15 18 21 22 25 27 28 29 29 30 30 29 29 27 26 25 24 23
18 17 24 24 16 21 16 15 14 14 15 15 15 14 13 12 11 10 10 9 10 11 11 11 12 13 15 19 21 24 26 27 27 28 29 30 29 29 29 27 25 25 25 22
22 24 20 18 17 17 18 17 14 15 15 14 14 13 14 12 11 10 10 10 10 11 11 12 13 14 16 18 21 25 27 27 27 27 28 29 28 28 27 27 25 24 23 23
20 31 22 18 15 19 17 19 17 13 15 16 17 17 15 13 12 11 10 10 11 12 12 13 14 15 17 18 21 25 26 26 27 27 28 28 28 28 27 26 25 24 24 23
25 22 31 27 19 20 21 21 20 16 16 16 16 17 15 13 12 10 9 10 11 13 13 14 15 15 17 18 21 24 25 26 27 27 28 28 28 27 27 26 25 25 25 24
32 35 28 30 19 17 22 23 21 19 16 14 14 14 15 15 14 12 11 11 12 13 14 15 16 17 18 19 21 23 24 26 27 28 28 28 27 27 26 26 25 25 24 24
22 23 22 18 22 21 23 22 21 20 17 16 15 14 15 16 15 14 13 12 14 14 14 17 17 18 19 19 21 23 24 26 26 27 28 28 27 27 26 25 25 25 25 24
28 23 30 30 27 25 29 26 22 22 23 21 18 17 17 17 15 14 14 15 14 14 15 16 18 19 19 20 20 23 25 26 27 28 28 28 28 27 26 25 25 25 25 24
26 29 24 29 29 31 28 29 25 24 22 22 18 18 18 19 18 17 17 16 15 16 15 17 18 19 20 19 20 22 24 26 27 28 29 29 28 26 26 26 26 25 25 24
28 27 29 30 34 30 29 30 27 24 23 21 17 18 20 21 20 20 19 17 17 18 15 17 19 19 20 19 20 22 24 26 27 28 29 28 27 26 26 26 26 26 25 24
20 26 31 33 37 36 33 30 28 25 21 22 19 19 20 21 23 23 19 17 18 18 16 18 18 19 19 19 20 22 24 26 27 29 29 27 27 26 26 26 27 26 25 24
22 24 30 40 41 42 39 35 29 25 25 26 27 27 24 25 26 23 21 21 18 17 18 17 18 18 18 18 19 22 25 27 27 29 29 27 26 26 27 27 27 26 25 24
23 23 24 37 40 39 37 35 33 30 27 26 29 31 28 26 24 22 19 19 19 17 17 17 17 17 17 18 19 23 25 27 28 28 27 27 26 26 27 27 26 25 24 24
28 26 28 31 39 37 38 36 36 32 30 29 31 30 28 25 29 26 22 19 16 16 17 15 16 16 16 17 20 23 25 27 27 27 26 26 26 26 27 27 26 25 24 24
22 22 28 27 39 42 37 35 33 32 35 35 33 33 29 30 28 23 22 17 14 16 15 14 14 15 16 18 21 22 24 26 27 26 26 27 26 26 26 26 26 24 24 23
21 23 31 30 31 32 39 40 35 35 38 36 35 34 33 31 27 22 18 14 14 14 13 12 12 13 16 18 20 21 23 25 26 25 26 26 26 26 26 25 25 24 24 23
22 26 34 33 31 25 29 32 35 39 36 32 31 30 28 25 23 20 15 13 14 12 11 10 11 13 15 17 19 21 23 24 25 26 26 26 26 26 25 25 24 24 23 23
Wind_Direction
241 235 233 231 234 245 243 245 245 261 250 241 234 247 262 261 260 264 274 291 301 299 303 303 297 284 270 266 264 268 276 279 278 282 285 291 296 298 302 305 306 308 309 313
224 224 229 248 253 248 244 248 255 261 262 250 243 248 254 258 262 267 276 293 302 298 292 291 286 278 265 263 265 265 265 268 275 286 293 296 301 306 309 311 311 312 315 316
225 229 235 241 234 239 250 252 257 253 269 268 251 255 258 263 256 262 276 294 294 284 287 276 264 255 253 254 260 267 277 285 292 296 300 306 309 312 312 314 315 317 318 322
218 226 242 249 238 246 253 265 262 259 266 269 263 260 245 240 246 269 287 284 278 281 270 266 265 261 258 261 267 277 288 294 299 303 308 310 313 314 317 319 319 321 324 326
208 217 227 231 230 229 233 249 248 251 255 255 249 231 232 239 263 287 282 264 272 265 265 264 262 259 261 268 277 287 296 300 306 309 311 315 316 320 321 322 325 326 325 324
213 218 209 248 234 239 233 256 241 254 266 264 240 227 244 264 279 279 258 262 266 261 249 251 256 262 269 279 290 299 303 307 310 312 318 319 323 324 326 327 329 326 326 324
214 221 235 220 201 211 223 258 258 257 269 260 254 263 261 265 273 254 254 260 264 251 250 260 266 269 276 289 300 305 308 313 316 320 321 323 327 329 329 329 329 327 325 325
215 227 234 242 222 226 249 261 261 281 243 245 252 257 264 266 254 254 258 261 251 250 265 274 271 277 289 300 306 310 316 319 321 323 324 327 329 331 330 329 328 328 327 325
219 229 234 242 249 250 249 254 265 265 245 243 259 261 260 246 252 253 255 253 246 258 272 276 279 288 296 303 309 316 319 321 322 324 325 328 330 331 330 330 328 328 326 326
235 237 243 249 248 239 248 261 254 264 243 245 243 240 241 256 252 254 251 244 245 262 273 276 281 289 301 309 315 319 319 320 322 325 328 328 330 332 331 330 330 330 328 331
234 239 249 253 240 245 252 254 256 254 233 235 230 235 257 249 251 247 240 234 251 265 270 273 283 294 305 312 315 317 319 320 323 327 328 329 331 331 330 331 332 332 330 332
230 217 231 233 239 240 236 250 257 239 236 235 232 250 256 246 245 238 233 239 253 264 267 274 285 294 305 312 316 318 319 321 324 328 328 329 330 330 331 331 331 331 332 333
211 218 230 226 240 250 241 257 275 249 236 232 243 257 247 246 240 234 235 237 251 264 268 275 285 295 306 313 316 318 319 322 325 327 329 329 329 329 330 330 328 329 330 329
223 216 215 216 227 251 241 254 260 247 238 238 242 251 243 239 236 235 239 238 252 261 264 271 282 295 305 314 317 318 320 322 324 327 328 328 328 330 330 328 327 326 327 328
218 216 218 213 219 220 240 243 253 256 245 249 251 252 246 240 237 238 241 246 255 261 268 280 286 298 307 316 319 319 320 322 324 327 329 327 329 329 329 328 326 324 327 327
246 212 207 211 223 228 238 237 247 249 248 252 258 251 241 234 232 239 243 253 262 265 275 285 291 301 309 316 320 319 319 322 324 328 328 327 330 327 327 325 323 322 321 322
250 260 228 244 225 228 240 246 261 257 249 259 263 253 238 232 235 238 246 254 263 271 280 287 294 301 308 316 320 318 319 321 324 328 328 328 327 326 326 323 322 322 319 322
241 236 216 231 230 221 237 248 257 259 260 262 263 253 237 231 236 238 246 254 267 272 278 288 292 299 308 315 318 317 321 322 327 328 329 327 326 326 324 323 321 320 318 320
237 240 232 221 223 216 228 242 251 260 258 260 258 252 238 232 233 235 244 256 266 272 280 286 291 300 308 313 316 319 321 322 327 329 328 326 326 326 325 324 321 319 317 317
224 225 225 225 226 229 225 237 239 252 257 244 255 252 236 237 236 236 241 253 261 270 280 283 292 301 307 312 316 320 320 323 327 329 326 326 326 327 326 324 321 318 316 316
243 243 237 222 232 231 232 230 235 243 261 248 250 252 241 239 238 237 243 253 258 267 276 283 294 300 306 310 318 320 321 324 329 328 326 327 326 329 328 324 321 317 315 315
261 256 245 225 230 236 235 233 231 238 245 244 245 244 231 231 235 233 237 247 260 270 278 285 293 300 304 312 320 321 321 327 331 326 326 327 329 331 328 325 322 318 316 315
260 255 246 226 221 227 224 227 232 241 246 247 242 257 227 230 231 232 236 242 254 266 274 284 294 298 305 317 323 321 323 330 329 325 327 328 331 331 328 325 322 320 319 317
247 258 237 235 224 229 228 227 235 238 239 237 239 241 224 229 225 222 241 247 253 266 275 287 294 298 309 319 323 321 329 332 327 326 329 331 333 331 329 325 323 323 322 320
257 252 238 242 231 225 226 228 232 236 237 237 240 232 219 215 210 224 236 244 253 264 278 287 291 301 314 323 323 327 332 329 327 329 333 334 333 332 328 324 324 325 325 323
285 242 231 232 234 234 231 232 234 238 241 243 244 232 224 216 219 231 234 239 251 263 275 280 293 307 319 323 325 332 332 329 329 333 336 335 335 333 329 325 326 328 327 325
278 235 226 223 227 225 230 231 235 241 243 246 239 236 220 212 217 223 225 237 252 264 268 284 300 314 323 325 331 336 334 333 335 339 340 340 339 335 330 327 328 329 328 326
Height
3126 3129 3131 3132 3133 3134 3133 3135 3135 3136 3138 3139 3141 3142 3143 3144 3144 3145 3145 3144 3143 3140 3138 3138 3138 3138 3139 3140 3141 3141 3141 3141 3139 3137 3134 3131 3127 3122 3117 3110 3103 3095 3087 3080
3121 3125 3127 3127 3129 3130 3130 3131 3131 3132 3132 3135 3137 3137 3137 3138 3140 3140 3140 3140 3139 3138 3136 3136 3136 3136 3137 3137 3137 3137 3137 3136 3135 3132 3129 3124 3120 3114 3109 3102 3094 3085 3079 3071
3116 3121 3122 3123 3122 3125 3126 3126 3127 3127 3129 3130 3131 3132 3132 3134 3135 3137 3137 3136 3135 3134 3134 3134 3135 3135 3135 3135 3135 3134 3133 3132 3129 3126 3122 3118 3112 3107 3100 3093 3085 3077 3070 3063
3114 3116 3117 3115 3119 3120 3121 3121 3122 3122 3123 3124 3126 3127 3128 3130 3132 3133 3132 3132 3132 3132 3132 3131 3131 3131 3132 3132 3131 3130 3129 3126 3124 3120 3116 3111 3106 3099 3093 3086 3077 3069 3062 3056
3109 3108 3109 3108 3113 3115 3115 3116 3117 3117 3118 3118 3120 3123 3124 3125 3127 3127 3127 3128 3129 3129 3129 3128 3128 3128 3128 3128 3127 3126 3124 3121 3118 3114 3110 3105 3099 3093 3086 3078 3071 3063 3057 3050
3104 3104 3103 3104 3109 3111 3112 3109 3113 3112 3112 3112 3114 3116 3120 3122 3122 3123 3123 3124 3125 3126 3126 3126 3126 3125 3124 3124 3122 3121 3119 3116 3113 3109 3104 3098 3093 3085 3079 3072 3066 3058 3051 3044
3097 3099 3097 3101 3103 3106 3109 3107 3106 3107 3109 3109 3111 3114 3116 3117 3118 3119 3119 3120 3121 3121 3122 3122 3122 3121 3120 3119 3117 3116 3114 3110 3106 3102 3097 3091 3086 3080 3073 3067 3060 3054 3047 3041
3093 3093 3095 3097 3100 3101 3103 3104 3104 3104 3105 3106 3109 3110 3111 3113 3114 3115 3115 3116 3117 3118 3118 3118 3117 3116 3115 3114 3112 3110 3108 3104 3100 3095 3090 3085 3080 3075 3068 3062 3056 3050 3044 3037
3088 3086 3090 3092 3095 3097 3098 3100 3102 3101 3102 3104 3106 3107 3108 3109 3110 3111 3112 3112 3113 3114 3114 3114 3112 3112 3111 3110 3108 3105 3102 3099 3095 3090 3085 3080 3075 3070 3064 3058 3052 3046 3040 3035
3083 3083 3085 3089 3091 3092 3094 3096 3098 3099 3100 3101 3102 3104 3105 3106 3107 3108 3108 3109 3110 3110 3110 3110 3109 3108 3107 3105 3103 3101 3098 3094 3090 3085 3080 3075 3069 3064 3058 3053 3048 3041 3035 3030
3075 3079 3082 3083 3084 3087 3090 3092 3093 3095 3096 3098 3099 3101 3102 3102 3103 3105 3105 3106 3106 3107 3107 3106 3105 3104 3102 3100 3099 3096 3093 3089 3085 3081 3076 3070 3065 3059 3053 3047 3042 3037 3032 3026
3070 3074 3074 3075 3079 3081 3084 3086 3089 3091 3092 3093 3095 3096 3097 3098 3100 3101 3102 3103 3103 3104 3103 3103 3101 3100 3098 3096 3095 3092 3088 3085 3080 3076 3071 3066 3060 3054 3048 3043 3038 3032 3027 3022
3064 3067 3069 3071 3072 3077 3081 3082 3084 3086 3087 3089 3091 3092 3093 3094 3096 3097 3099 3100 3100 3100 3099 3098 3097 3096 3094 3092 3090 3087 3083 3080 3076 3071 3066 3061 3055 3050 3045 3038 3033 3028 3024 3018
3058 3061 3065 3068 3070 3074 3077 3078 3080 3081 3082 3084 3086 3088 3089 3090 3092 3093 3095 3096 3096 3096 3095 3095 3093 3092 3090 3087 3086 3083 3080 3075 3071 3066 3061 3056 3050 3045 3040 3034 3029 3024 3019 3014
3051 3053 3057 3060 3061 3063 3070 3073 3075 3077 3078 3080 3081 3083 3085 3086 3087 3089 3090 3092 3092 3092 3091 3090 3088 3087 3084 3082 3081 3078 3075 3070 3066 3061 3056 3051 3045 3040 3035 3030 3024 3019 3014 3009
3043 3042 3048 3051 3055 3059 3064 3067 3069 3072 3074 3075 3077 3078 3080 3081 3083 3084 3085 3086 3087 3087 3086 3085 3083 3081 3079 3077 3075 3073 3070 3065 3061 3055 3050 3045 3040 3035 3030 3025 3020 3015 3010 3006
3037 3040 3041 3045 3048 3052 3058 3062 3064 3067 3070 3071 3072 3073 3074 3076 3077 3079 3080 3080 3081 3081 3081 3080 3078 3077 3074 3072 3069 3067 3064 3061 3055 3051 3045 3041 3035 3030 3025 3020 3015 3010 3005 3001
3030 3034 3037 3041 3045 3047 3051 3056 3059 3062 3064 3065 3067 3068 3069 3071 3073 3075 3075 3076 3076 3077 3076 3076 3073 3072 3070 3067 3063 3061 3058 3055 3049 3045 3040 3035 3030 3024 3019 3014 3010 3005 3000 2996
3019 3024 3028 3031 3037 3040 3045 3050 3053 3057 3058 3060 3062 3062 3064 3066 3068 3069 3071 3071 3072 3072 3072 3071 3068 3067 3065 3062 3058 3056 3053 3049 3044 3040 3035 3030 3025 3019 3013 3008 3004 3000 2996 2991
3011 3014 3017 3022 3028 3032 3036 3041 3046 3050 3052 3054 3055 3057 3058 3061 3063 3064 3066 3067 3067 3067 3067 3065 3063 3062 3060 3056 3053 3050 3048 3044 3039 3034 3030 3024 3019 3014 3008 3003 2999 2995 2990 2986
3007 3010 3012 3014 3018 3024 3029 3035 3039 3043 3046 3048 3050 3051 3053 3055 3058 3059 3061 3062 3062 3062 3061 3060 3058 3057 3054 3051 3048 3045 3042 3038 3033 3028 3024 3019 3013 3008 3003 2998 2994 2990 2985 2981
2999 3000 3001 3004 3009 3014 3021 3027 3031 3035 3039 3040 3042 3043 3045 3048 3050 3054 3056 3057 3056 3056 3055 3054 3053 3051 3048 3046 3043 3040 3036 3032 3027 3023 3018 3013 3008 3002 2997 2993 2989 2985 2980 2976
2990 2990 2993 2995 3000 3006 3012 3018 3024 3028 3031 3033 3034 3035 3036 3040 3044 3047 3049 3050 3048 3049 3050 3048 3047 3045 3043 3040 3037 3035 3031 3026 3022 3018 3013 3007 3002 2997 2992 2988 2984 2980 2975 2971
2979 2981 2984 2988 2993 2998 3004 3009 3015 3020 3024 3025 3026 3028 3030 3033 3036 3039 3041 3041 3041 3044 3044 3043 3042 3040 3038 3034 3032 3030 3024 3020 3017 3013 3007 3001 2996 2991 2987 2983 2979 2974 2970 2966
2969 2971 2976 2981 2984 2988 2995 3001 3007 3012 3014 3016 3019 3020 3023 3025 3029 3032 3033 3035 3036 3038 3037 3037 3036 3034 3031 3029 3028 3024 3018 3015 3012 3007 3001 2996 2990 2986 2982 2979 2974 2970 2965 2961
2960 2963 2967 2971 2977 2982 2988 2994 2998 3003 3005 3008 3011 3013 3015 3018 3023 3026 3027 3029 3032 3033 3032 3032 3031 3029 3026 3024 3022 3017 3014 3011 3007 3001 2996 2991 2986 2981 2977 2974 2970 2965 2961 2957
2950 2953 2959 2965 2971 2974 2979 2985 2990 2994 2998 3002 3005 3006 3009 3015 3018 3020 3022 3025 3027 3027 3027 3026 3026 3024 3022 3020 3017 3013 3010 3007 3001 2995 2991 2986 2981 2977 2973 2970 2965 2961 2957 2953